TimeCST,TemperatureF,Dew PointF,Humidity,Sea Level PressureIn,VisibilityMPH,Wind Direction,Wind SpeedMPH,Gust SpeedMPH,PrecipitationIn,Events,Conditions,WindDirDegrees,DateUTC
12:53 AM,61.0,59.0,93,29.96,8.0,SSE,4.6,-,N/A,,Clear,160,2012-12-16 06:53:00
1:53 AM,61.0,59.0,93,29.96,10.0,South,3.5,-,N/A,,Clear,180,2012-12-16 07:53:00
2:53 AM,57.0,55.0,93,29.95,9.0,SSE,4.6,-,N/A,,Clear,160,2012-12-16 08:53:00
3:53 AM,61.0,59.0,93,29.94,10.0,South,3.5,-,N/A,,Partly Cloudy,190,2012-12-16 09:53:00
4:38 AM,62.6,59.0,88,29.93,10.0,Calm,Calm,-,N/A,,Mostly Cloudy,0,2012-12-16 10:38:00
4:53 AM,62.1,59.0,90,29.93,10.0,Calm,Calm,-,N/A,,Overcast,0,2012-12-16 10:53:00
5:00 AM,60.8,59.0,94,29.94,9.0,Calm,Calm,-,N/A,,Overcast,0,2012-12-16 11:00:00
5:14 AM,60.8,57.2,88,29.93,9.0,SSE,3.5,-,N/A,,Mostly Cloudy,150,2012-12-16 11:14:00
5:53 AM,61.0,59.0,93,29.94,8.0,Calm,Calm,-,N/A,,Mostly Cloudy,0,2012-12-16 11:53:00
7:17 AM,59.0,55.4,88,29.97,8.0,SE,3.5,-,N/A,,Mostly Cloudy,140,2012-12-16 13:17:00
7:27 AM,59.0,57.2,94,29.97,4.0,Calm,Calm,-,N/A,,Mostly Cloudy,0,2012-12-16 13:27:00
7:34 AM,60.8,57.2,88,29.97,4.0,SSE,3.5,-,N/A,,Mostly Cloudy,150,2012-12-16 13:34:00
7:53 AM,62.1,60.1,93,29.95,6.0,SSE,4.6,-,N/A,,Partly Cloudy,150,2012-12-16 13:53:00
8:53 AM,66.0,63.0,90,29.93,10.0,South,5.8,-,N/A,,Partly Cloudy,170,2012-12-16 14:53:00
9:53 AM,71.1,63.0,75,29.92,10.0,South,8.1,-,N/A,,Mostly Cloudy,180,2012-12-16 15:53:00
10:53 AM,73.0,63.0,71,29.91,10.0,South,9.2,-,N/A,,Overcast,190,2012-12-16 16:53:00
11:53 AM,73.9,63.0,68,29.92,10.0,SSW,9.2,-,N/A,,Mostly Cloudy,200,2012-12-16 17:53:00
12:53 PM,75.0,62.1,64,29.88,10.0,SSW,11.5,19.6,N/A,,Mostly Cloudy,210,2012-12-16 18:53:00
1:53 PM,75.0,62.1,64,29.85,10.0,SSW,6.9,-,N/A,,Mostly Cloudy,200,2012-12-16 19:53:00
2:53 PM,73.0,62.1,68,29.83,10.0,WSW,6.9,-,N/A,,Mostly Cloudy,250,2012-12-16 20:53:00
3:12 PM,66.2,55.4,68,29.86,10.0,NW,13.8,20.7,N/A,,Overcast,310,2012-12-16 21:12:00
3:48 PM,62.6,55.4,77,29.88,10.0,NNW,11.5,23.0,0.00,Rain,Light Rain,340,2012-12-16 21:48:00
4:12 PM,60.8,57.2,88,29.90,2.5,NNW,8.1,-,0.06,Rain,Heavy Rain,330,2012-12-16 22:12:00
4:19 PM,60.8,57.2,88,29.91,2.0,NNW,6.9,-,0.08,Rain,Heavy Rain,330,2012-12-16 22:19:00
4:29 PM,60.8,57.2,88,29.92,1.8,NW,9.2,-,0.14,Rain,Heavy Rain,320,2012-12-16 22:29:00
4:51 PM,60.8,57.2,88,29.93,2.5,NNW,4.6,-,0.24,Rain,Heavy Rain,340,2012-12-16 22:51:00
4:53 PM,60.1,57.9,93,29.92,3.0,NNW,6.9,-,0.25,Rain,Rain,340,2012-12-16 22:53:00
5:53 PM,60.1,57.9,93,29.91,10.0,Calm,Calm,-,0.06,Rain,Light Rain,0,2012-12-16 23:53:00
6:53 PM,60.1,57.9,93,29.89,10.0,East,3.5,-,0.02,Rain,Light Rain,90,2012-12-17 00:53:00
7:01 PM,60.8,57.2,88,29.89,10.0,East,3.5,-,0.00,Rain,Light Rain,90,2012-12-17 01:01:00
7:14 PM,60.8,57.2,88,29.89,10.0,East,3.5,-,0.00,,Overcast,100,2012-12-17 01:14:00
7:53 PM,60.1,57.9,93,29.88,10.0,Variable,4.6,-,0.01,Rain,Light Rain,0,2012-12-17 01:53:00
8:05 PM,60.8,57.2,88,29.88,5.0,SE,9.2,-,0.05,Rain,Heavy Rain,140,2012-12-17 02:05:00
8:53 PM,62.1,57.9,86,29.86,10.0,South,13.8,-,0.15,Rain,Light Rain,180,2012-12-17 02:53:00
9:53 PM,62.1,57.9,86,29.86,10.0,South,8.1,-,0.01,Rain,Light Rain,180,2012-12-17 03:53:00
10:53 PM,61.0,59.0,93,29.84,10.0,Calm,Calm,-,0.03,,Mostly Cloudy,0,2012-12-17 04:53:00
11:53 PM,61.0,57.9,90,29.84,10.0,Calm,Calm,-,0.00,Rain,Light Rain,0,2012-12-17 05:53:00